Time,TemperatureF,DewpointF,PressureIn,WindDirection,WindDirectionDegrees,WindSpeedMPH,WindSpeedGustMPH,Humidity,HourlyPrecipIn,Conditions,Clouds,dailyrainin,SoftwareType,DateUTC
2013-04-04 00:00:00,33.6,16.5,30.18,North,355,6.0,0.0,49,0.00,,,0.00,WeatherTracker,2013-04-04 04:00:00,
2013-04-04 00:05:00,33.5,16.9,30.18,NNW,331,5.0,0.0,50,0.00,,,0.00,WeatherTracker,2013-04-04 04:05:00,
2013-04-04 00:10:00,33.5,16.9,30.18,NW,315,2.0,0.0,50,0.00,,,0.00,WeatherTracker,2013-04-04 04:10:00,
2013-04-04 00:20:00,33.4,16.3,30.18,WNW,300,3.0,0.0,49,0.00,,,0.00,WeatherTracker,2013-04-04 04:20:00,
2013-04-04 00:30:00,33.3,16.7,30.19,NW,315,1.0,0.0,50,0.00,,,0.00,WeatherTracker,2013-04-04 04:30:00,
2013-04-04 00:40:00,33.1,16.5,30.19,NW,323,3.0,0.0,50,0.00,,,0.00,WeatherTracker,2013-04-04 04:40:00,
2013-04-04 00:45:00,33.0,16.4,30.19,WNW,298,4.0,0.0,50,0.00,,,0.00,WeatherTracker,2013-04-04 04:45:00,
2013-04-04 00:55:00,33.0,16.4,30.19,North,355,3.0,0.0,50,0.00,,,0.00,WeatherTracker,2013-04-04 04:55:00,
2013-04-04 01:05:00,32.9,16.3,30.20,North,351,5.0,0.0,50,0.00,,,0.00,WeatherTracker,2013-04-04 05:05:00,
2013-04-04 01:10:00,33.0,16.4,30.20,NW,319,1.0,0.0,50,0.00,,,0.00,WeatherTracker,2013-04-04 05:10:00,
2013-04-04 01:20:00,32.9,16.3,30.20,North,5,5.0,0.0,50,0.00,,,0.00,WeatherTracker,2013-04-04 05:20:00,
2013-04-04 01:25:00,32.9,16.3,30.20,NNW,336,2.0,0.0,50,0.00,,,0.00,WeatherTracker,2013-04-04 05:25:00,
2013-04-04 01:35:00,32.8,16.2,30.20,NNW,333,2.0,0.0,50,0.00,,,0.00,WeatherTracker,2013-04-04 05:35:00,
2013-04-04 01:45:00,32.7,16.1,30.20,NW,321,1.0,0.0,50,0.00,,,0.00,WeatherTracker,2013-04-04 05:45:00,
2013-04-04 01:50:00,32.7,16.6,30.20,NW,324,1.0,0.0,51,0.00,,,0.00,WeatherTracker,2013-04-04 05:50:00,
2013-04-04 02:00:00,32.5,16.4,30.20,North,9,3.0,0.0,51,0.00,,,0.00,WeatherTracker,2013-04-04 06:00:00,
2013-04-04 02:05:00,32.6,16.5,30.21,NW,305,0.0,0.0,51,0.00,,,0.00,WeatherTracker,2013-04-04 06:05:00,
2013-04-04 02:10:00,32.6,16.5,30.21,West,271,5.0,0.0,51,0.00,,,0.00,WeatherTracker,2013-04-04 06:10:00,
2013-04-04 02:15:00,32.6,16.5,30.21,West,270,2.0,0.0,51,0.00,,,0.00,WeatherTracker,2013-04-04 06:15:00,
2013-04-04 02:20:00,32.5,16.4,30.21,WSW,253,2.0,0.0,51,0.00,,,0.00,WeatherTracker,2013-04-04 06:20:00,
2013-04-04 02:30:00,32.4,16.3,30.21,NNE,22,1.0,0.0,51,0.00,,,0.00,WeatherTracker,2013-04-04 06:30:00,
2013-04-04 02:35:00,32.4,16.8,30.21,WNW,301,6.0,0.0,52,0.00,,,0.00,WeatherTracker,2013-04-04 06:35:00,
2013-04-04 02:40:00,32.4,16.8,30.21,NNW,342,3.0,0.0,52,0.00,,,0.00,WeatherTracker,2013-04-04 06:40:00,
2013-04-04 02:50:00,32.5,16.9,30.21,WNW,286,1.0,0.0,52,0.00,,,0.00,WeatherTracker,2013-04-04 06:50:00,
2013-04-04 02:55:00,32.4,16.8,30.21,NNW,327,5.0,0.0,52,0.00,,,0.00,WeatherTracker,2013-04-04 06:55:00,
2013-04-04 03:05:00,32.4,17.2,30.20,NW,325,4.0,0.0,53,0.00,,,0.00,WeatherTracker,2013-04-04 07:05:00,
2013-04-04 03:15:00,32.3,17.1,30.20,NW,318,2.0,0.0,53,0.00,,,0.00,WeatherTracker,2013-04-04 07:15:00,
2013-04-04 03:20:00,32.3,17.1,30.20,North,11,2.0,0.0,53,0.00,,,0.00,WeatherTracker,2013-04-04 07:20:00,
2013-04-04 03:25:00,32.3,17.1,30.21,North,5,6.0,0.0,53,0.00,,,0.00,WeatherTracker,2013-04-04 07:25:00,
2013-04-04 03:35:00,32.1,17.4,30.20,West,281,3.0,0.0,54,0.00,,,0.00,WeatherTracker,2013-04-04 07:35:00,
2013-04-04 03:40:00,32.0,17.3,30.20,WNW,298,1.0,0.0,54,0.00,,,0.00,WeatherTracker,2013-04-04 07:40:00,
2013-04-04 03:50:00,31.9,17.6,30.20,NW,309,4.0,0.0,55,0.00,,,0.00,WeatherTracker,2013-04-04 07:50:00,
2013-04-04 04:00:00,31.9,17.6,30.20,SE,135,0.0,0.0,55,0.00,,,0.00,WeatherTracker,2013-04-04 08:00:00,
2013-04-04 04:10:00,31.7,17.4,30.20,WNW,299,4.0,0.0,55,0.00,,,0.00,WeatherTracker,2013-04-04 08:10:00,
2013-04-04 04:15:00,31.6,17.3,30.21,NE,53,2.0,0.0,55,0.00,,,0.00,WeatherTracker,2013-04-04 08:15:00,
2013-04-04 04:25:00,31.6,17.7,30.20,NNE,30,3.0,0.0,56,0.00,,,0.00,WeatherTracker,2013-04-04 08:25:00,
2013-04-04 04:30:00,31.5,17.6,30.21,NW,313,1.0,0.0,56,0.00,,,0.00,WeatherTracker,2013-04-04 08:30:00,
2013-04-04 04:35:00,31.4,17.5,30.21,NW,306,1.0,0.0,56,0.00,,,0.00,WeatherTracker,2013-04-04 08:35:00,
2013-04-04 04:45:00,31.1,17.7,30.21,NNW,340,2.0,0.0,57,0.00,,,0.00,WeatherTracker,2013-04-04 08:45:00,
2013-04-04 04:55:00,30.9,17.9,30.22,NW,306,2.0,0.0,58,0.00,,,0.00,WeatherTracker,2013-04-04 08:55:00,
2013-04-04 05:05:00,30.9,17.9,30.23,WNW,298,3.0,0.0,58,0.00,,,0.00,WeatherTracker,2013-04-04 09:05:00,
2013-04-04 05:10:00,30.9,17.9,30.23,NW,304,2.0,0.0,58,0.00,,,0.00,WeatherTracker,2013-04-04 09:10:00,
2013-04-04 05:15:00,30.9,17.9,30.23,NW,306,3.0,0.0,58,0.00,,,0.00,WeatherTracker,2013-04-04 09:15:00,
2013-04-04 05:20:00,30.8,17.8,30.23,WNW,300,4.0,0.0,58,0.00,,,0.00,WeatherTracker,2013-04-04 09:20:00,
2013-04-04 05:25:00,30.8,17.8,30.23,NNW,342,3.0,0.0,58,0.00,,,0.00,WeatherTracker,2013-04-04 09:25:00,
2013-04-04 05:30:00,30.8,17.8,30.24,NNW,333,4.0,0.0,58,0.00,,,0.00,WeatherTracker,2013-04-04 09:30:00,
2013-04-04 05:35:00,30.8,17.8,30.24,NNE,30,3.0,0.0,58,0.00,,,0.00,WeatherTracker,2013-04-04 09:35:00,
2013-04-04 05:45:00,30.8,17.8,30.24,North,355,3.0,0.0,58,0.00,,,0.00,WeatherTracker,2013-04-04 09:45:00,
2013-04-04 05:50:00,30.8,18.2,30.25,NW,317,3.0,0.0,59,0.00,,,0.00,WeatherTracker,2013-04-04 09:50:00,
2013-04-04 06:00:00,30.9,17.9,30.26,NNW,340,5.0,0.0,58,0.00,,,0.00,WeatherTracker,2013-04-04 10:00:00,
2013-04-04 06:05:00,31.1,18.1,30.26,WNW,303,6.0,0.0,58,0.00,,,0.00,WeatherTracker,2013-04-04 10:05:00,
2013-04-04 06:10:00,31.2,18.2,30.26,WNW,296,3.0,0.0,58,0.00,,,0.00,WeatherTracker,2013-04-04 10:10:00,
2013-04-04 06:20:00,31.3,18.3,30.26,WNW,302,2.0,0.0,58,0.00,,,0.00,WeatherTracker,2013-04-04 10:20:00,
2013-04-04 06:30:00,31.2,18.2,30.27,NW,321,2.0,0.0,58,0.00,,,0.00,WeatherTracker,2013-04-04 10:30:00,
2013-04-04 06:40:00,30.9,18.3,30.27,NW,319,1.0,0.0,59,0.00,,,0.00,WeatherTracker,2013-04-04 10:40:00,
2013-04-04 06:50:00,30.7,18.5,30.27,NW,318,2.0,0.0,60,0.00,,,0.00,WeatherTracker,2013-04-04 10:50:00,
2013-04-04 06:55:00,30.7,18.5,30.27,WNW,284,2.0,0.0,60,0.00,,,0.00,WeatherTracker,2013-04-04 10:55:00,
2013-04-04 07:00:00,30.8,18.6,30.27,NW,315,3.0,0.0,60,0.00,,,0.00,WeatherTracker,2013-04-04 11:00:00,
2013-04-04 07:05:00,30.9,18.7,30.28,West,278,4.0,0.0,60,0.00,,,0.00,WeatherTracker,2013-04-04 11:05:00,
2013-04-04 07:10:00,31.1,18.9,30.29,NW,309,1.0,0.0,60,0.00,,,0.00,WeatherTracker,2013-04-04 11:10:00,
2013-04-04 07:20:00,31.5,18.8,30.30,NW,323,5.0,0.0,59,0.00,,,0.00,WeatherTracker,2013-04-04 11:20:00,
2013-04-04 07:25:00,31.7,19.0,30.30,WNW,293,2.0,0.0,59,0.00,,,0.00,WeatherTracker,2013-04-04 11:25:00,
2013-04-04 07:30:00,32.0,18.9,30.30,NNW,344,2.0,0.0,58,0.00,,,0.00,WeatherTracker,2013-04-04 11:30:00,
2013-04-04 07:35:00,32.4,19.3,30.30,WNW,298,2.0,0.0,58,0.00,,,0.00,WeatherTracker,2013-04-04 11:35:00,
2013-04-04 07:40:00,32.6,19.1,30.30,NW,308,3.0,0.0,57,0.00,,,0.00,WeatherTracker,2013-04-04 11:40:00,
2013-04-04 07:50:00,33.0,19.5,30.30,NW,323,3.0,0.0,57,0.00,,,0.00,WeatherTracker,2013-04-04 11:50:00,
2013-04-04 08:00:00,33.6,19.2,30.30,NW,318,4.0,0.0,55,0.00,,,0.00,WeatherTracker,2013-04-04 12:00:00,
2013-04-04 08:05:00,33.8,19.4,30.30,NNW,338,0.0,0.0,55,0.00,,,0.00,WeatherTracker,2013-04-04 12:05:00,
2013-04-04 08:10:00,34.2,19.7,30.30,NNW,343,2.0,0.0,55,0.00,,,0.00,WeatherTracker,2013-04-04 12:10:00,
2013-04-04 08:15:00,34.5,19.6,30.31,NNE,22,0.0,0.0,54,0.00,,,0.00,WeatherTracker,2013-04-04 12:15:00,
2013-04-04 08:25:00,35.1,19.3,30.31,North,351,4.0,0.0,52,0.00,,,0.00,WeatherTracker,2013-04-04 12:25:00,
2013-04-04 08:30:00,35.3,19.5,30.31,WNW,284,1.0,0.0,52,0.00,,,0.00,WeatherTracker,2013-04-04 12:30:00,
2013-04-04 08:35:00,35.6,18.8,30.31,West,273,3.0,0.0,50,0.00,,,0.00,WeatherTracker,2013-04-04 12:35:00,
2013-04-04 08:45:00,36.1,19.3,30.31,NE,41,5.0,0.0,50,0.00,,,0.00,WeatherTracker,2013-04-04 12:45:00,
2013-04-04 08:50:00,36.6,19.3,30.31,NNW,337,4.0,0.0,49,0.00,,,0.00,WeatherTracker,2013-04-04 12:50:00,
2013-04-04 08:55:00,36.9,19.1,30.31,NW,315,3.0,0.0,48,0.00,,,0.00,WeatherTracker,2013-04-04 12:55:00,
2013-04-04 09:05:00,37.4,17.5,30.30,NNW,340,2.0,0.0,44,0.00,,,0.00,WeatherTracker,2013-04-04 13:05:00,
2013-04-04 09:10:00,37.6,17.2,30.30,NNW,334,4.0,0.0,43,0.00,,,0.00,WeatherTracker,2013-04-04 13:10:00,
2013-04-04 09:15:00,38.0,17.0,30.30,NE,42,5.0,0.0,42,0.00,,,0.00,WeatherTracker,2013-04-04 13:15:00,
2013-04-04 09:25:00,38.6,16.4,30.30,NNE,18,5.0,0.0,40,0.00,,,0.00,WeatherTracker,2013-04-04 13:25:00,
2013-04-04 09:30:00,39.1,16.8,30.30,NNW,338,8.0,0.0,40,0.00,,,0.00,WeatherTracker,2013-04-04 13:30:00,
2013-04-04 09:35:00,39.4,15.9,30.30,NNE,27,4.0,0.0,38,0.00,,,0.00,WeatherTracker,2013-04-04 13:35:00,
2013-04-04 09:40:00,39.5,16.0,30.30,NNE,26,5.0,0.0,38,0.00,,,0.00,WeatherTracker,2013-04-04 13:40:00,
2013-04-04 09:50:00,40.1,15.9,30.29,North,355,3.0,0.0,37,0.00,,,0.00,WeatherTracker,2013-04-04 13:50:00,
2013-04-04 09:55:00,40.6,15.8,30.29,NNW,342,2.0,0.0,36,0.00,,,0.00,WeatherTracker,2013-04-04 13:55:00,
2013-04-04 10:05:00,40.9,15.4,30.29,WNW,286,4.0,0.0,35,0.00,,,0.00,WeatherTracker,2013-04-04 14:05:00,
2013-04-04 10:10:00,41.1,14.2,30.29,NNW,329,1.0,0.0,33,0.00,,,0.00,WeatherTracker,2013-04-04 14:10:00,
2013-04-04 10:20:00,41.3,14.4,30.29,NW,320,1.0,0.0,33,0.00,,,0.00,WeatherTracker,2013-04-04 14:20:00,
2013-04-04 10:25:00,41.7,14.7,30.28,ENE,66,4.0,0.0,33,0.00,,,0.00,WeatherTracker,2013-04-04 14:25:00,
2013-04-04 10:30:00,41.9,15.6,30.28,NW,314,6.0,0.0,34,0.00,,,0.00,WeatherTracker,2013-04-04 14:30:00,
2013-04-04 10:35:00,42.3,15.3,30.27,WSW,258,3.0,0.0,33,0.00,,,0.00,WeatherTracker,2013-04-04 14:35:00,
2013-04-04 10:45:00,42.9,14.4,30.27,WNW,299,2.0,0.0,31,0.00,,,0.00,WeatherTracker,2013-04-04 14:45:00,
2013-04-04 10:50:00,43.7,15.1,30.27,NNW,328,3.0,0.0,31,0.00,,,0.00,WeatherTracker,2013-04-04 14:50:00,
2013-04-04 11:00:00,44.5,15.0,30.26,North,9,3.0,0.0,30,0.00,,,0.00,WeatherTracker,2013-04-04 15:00:00,
2013-04-04 11:05:00,44.8,15.3,30.26,NNW,345,7.0,0.0,30,0.00,,,0.00,WeatherTracker,2013-04-04 15:05:00,
2013-04-04 11:15:00,44.2,14.8,30.26,West,261,2.0,0.0,30,0.00,,,0.00,WeatherTracker,2013-04-04 15:15:00,
2013-04-04 11:20:00,44.8,13.7,30.25,East,98,2.0,0.0,28,0.00,,,0.00,WeatherTracker,2013-04-04 15:20:00,
2013-04-04 11:30:00,45.8,14.6,30.25,NE,44,3.0,0.0,28,0.00,,,0.00,WeatherTracker,2013-04-04 15:30:00,
2013-04-04 11:40:00,46.4,15.1,30.25,NNW,348,2.0,0.0,28,0.00,,,0.00,WeatherTracker,2013-04-04 15:40:00,
2013-04-04 11:45:00,47.3,15.0,30.25,North,5,6.0,0.0,27,0.00,,,0.00,WeatherTracker,2013-04-04 15:45:00,
2013-04-04 11:50:00,47.4,14.3,30.24,NW,321,3.0,0.0,26,0.00,,,0.00,WeatherTracker,2013-04-04 15:50:00,
2013-04-04 12:00:00,47.1,13.1,30.24,WNW,302,6.0,0.0,25,0.00,,,0.00,WeatherTracker,2013-04-04 16:00:00,
2013-04-04 12:10:00,47.8,12.8,30.23,NNW,339,6.0,0.0,24,0.00,,,0.00,WeatherTracker,2013-04-04 16:10:00,
2013-04-04 12:15:00,47.8,11.8,30.23,WNW,303,7.0,0.0,23,0.00,,,0.00,WeatherTracker,2013-04-04 16:15:00,
2013-04-04 12:25:00,48.4,11.3,30.23,NNE,15,2.0,0.0,22,0.00,,,0.00,WeatherTracker,2013-04-04 16:25:00,
2013-04-04 12:30:00,48.8,13.6,30.23,NW,319,3.0,0.0,24,0.00,,,0.00,WeatherTracker,2013-04-04 16:30:00,
2013-04-04 12:40:00,50.0,11.6,30.23,North,355,5.0,0.0,21,0.00,,,0.00,WeatherTracker,2013-04-04 16:40:00,
2013-04-04 12:50:00,50.3,10.8,30.22,NNE,20,3.0,0.0,20,0.00,,,0.00,WeatherTracker,2013-04-04 16:50:00,
2013-04-04 12:55:00,50.3,9.6,30.22,NW,325,5.0,0.0,19,0.00,,,0.00,WeatherTracker,2013-04-04 16:55:00,
2013-04-04 13:00:00,50.6,9.9,30.22,NNW,333,5.0,0.0,19,0.00,,,0.00,WeatherTracker,2013-04-04 17:00:00,
2013-04-04 13:05:00,50.5,10.9,30.21,WSW,252,5.0,0.0,20,0.00,,,0.00,WeatherTracker,2013-04-04 17:05:00,
2013-04-04 13:15:00,51.0,11.4,30.21,WNW,298,3.0,0.0,20,0.00,,,0.00,WeatherTracker,2013-04-04 17:15:00,
2013-04-04 13:20:00,51.4,13.8,30.21,North,355,5.0,0.0,22,0.00,,,0.00,WeatherTracker,2013-04-04 17:20:00,
2013-04-04 13:25:00,51.4,10.5,30.20,WSW,238,5.0,0.0,19,0.00,,,0.00,WeatherTracker,2013-04-04 17:25:00,
2013-04-04 13:30:00,51.0,12.5,30.20,West,275,10.0,0.0,21,0.00,,,0.00,WeatherTracker,2013-04-04 17:30:00,
2013-04-04 13:35:00,51.0,12.5,30.20,NNW,346,3.0,0.0,21,0.00,,,0.00,WeatherTracker,2013-04-04 17:35:00,
2013-04-04 13:45:00,52.0,12.2,30.19,WNW,298,6.0,0.0,20,0.00,,,0.00,WeatherTracker,2013-04-04 17:45:00,
2013-04-04 13:50:00,52.1,13.4,30.19,West,275,6.0,0.0,21,0.00,,,0.00,WeatherTracker,2013-04-04 17:50:00,
2013-04-04 13:55:00,52.2,11.2,30.19,WNW,294,9.0,0.0,19,0.00,,,0.00,WeatherTracker,2013-04-04 17:55:00,
2013-04-04 14:05:00,52.2,13.5,30.18,NE,42,4.0,0.0,21,0.00,,,0.00,WeatherTracker,2013-04-04 18:05:00,
2013-04-04 14:15:00,52.6,12.7,30.18,WNW,294,8.0,0.0,20,0.00,,,0.00,WeatherTracker,2013-04-04 18:15:00,
2013-04-04 14:20:00,52.4,12.5,30.18,West,261,9.0,0.0,20,0.00,,,0.00,WeatherTracker,2013-04-04 18:20:00,
2013-04-04 14:25:00,52.8,11.7,30.18,WNW,302,6.0,0.0,19,0.00,,,0.00,WeatherTracker,2013-04-04 18:25:00,
2013-04-04 14:35:00,53.0,11.9,30.17,WNW,298,8.0,0.0,19,0.00,,,0.00,WeatherTracker,2013-04-04 18:35:00,
2013-04-04 14:40:00,53.4,12.2,30.17,NW,324,4.0,0.0,19,0.00,,,0.00,WeatherTracker,2013-04-04 18:40:00,
2013-04-04 14:45:00,53.6,11.1,30.17,WSW,249,4.0,0.0,18,0.00,,,0.00,WeatherTracker,2013-04-04 18:45:00,
2013-04-04 14:55:00,53.6,12.4,30.16,NW,313,8.0,0.0,19,0.00,,,0.00,WeatherTracker,2013-04-04 18:55:00,
2013-04-04 15:00:00,53.7,13.6,30.15,NNE,32,2.0,0.0,20,0.00,,,0.00,WeatherTracker,2013-04-04 19:00:00,
2013-04-04 15:10:00,54.6,13.2,30.15,WNW,288,4.0,0.0,19,0.00,,,0.00,WeatherTracker,2013-04-04 19:10:00,
2013-04-04 15:15:00,54.3,14.1,30.15,NW,323,4.0,0.0,20,0.00,,,0.00,WeatherTracker,2013-04-04 19:15:00,
2013-04-04 15:25:00,54.2,14.0,30.14,NW,311,2.0,0.0,20,0.00,,,0.00,WeatherTracker,2013-04-04 19:25:00,
2013-04-04 15:30:00,54.4,14.2,30.14,WNW,286,7.0,0.0,20,0.00,,,0.00,WeatherTracker,2013-04-04 19:30:00,
2013-04-04 15:40:00,54.3,14.1,30.13,WNW,296,9.0,0.0,20,0.00,,,0.00,WeatherTracker,2013-04-04 19:40:00,
2013-04-04 15:45:00,54.2,14.0,30.13,SE,138,5.0,0.0,20,0.00,,,0.00,WeatherTracker,2013-04-04 19:45:00,
2013-04-04 15:50:00,54.6,15.5,30.12,West,265,6.0,0.0,21,0.00,,,0.00,WeatherTracker,2013-04-04 19:50:00,
2013-04-04 16:00:00,55.0,14.7,30.12,NW,315,8.0,0.0,20,0.00,,,0.00,WeatherTracker,2013-04-04 20:00:00,
2013-04-04 16:10:00,54.9,13.4,30.11,NNW,342,2.0,0.0,19,0.00,,,0.00,WeatherTracker,2013-04-04 20:10:00,
2013-04-04 16:20:00,55.0,14.7,30.10,West,280,3.0,0.0,20,0.00,,,0.00,WeatherTracker,2013-04-04 20:20:00,
2013-04-04 16:30:00,55.3,16.0,30.10,NW,317,7.0,0.0,21,0.00,,,0.00,WeatherTracker,2013-04-04 20:30:00,
2013-04-04 16:35:00,55.0,15.8,30.10,WSW,257,4.0,0.0,21,0.00,,,0.00,WeatherTracker,2013-04-04 20:35:00,
2013-04-04 16:45:00,55.1,17.0,30.09,West,280,10.0,0.0,22,0.00,,,0.00,WeatherTracker,2013-04-04 20:45:00,
2013-04-04 16:50:00,55.1,17.0,30.09,WNW,292,3.0,0.0,22,0.00,,,0.00,WeatherTracker,2013-04-04 20:50:00,
2013-04-04 16:55:00,55.1,17.0,30.09,WNW,295,8.0,0.0,22,0.00,,,0.00,WeatherTracker,2013-04-04 20:55:00,
2013-04-04 17:05:00,55.1,17.0,30.09,West,267,10.0,0.0,22,0.00,,,0.00,WeatherTracker,2013-04-04 21:05:00,
2013-04-04 17:15:00,55.1,17.0,30.09,WNW,298,5.0,0.0,22,0.00,,,0.00,WeatherTracker,2013-04-04 21:15:00,
2013-04-04 17:20:00,55.1,17.0,30.09,WNW,301,5.0,0.0,22,0.00,,,0.00,WeatherTracker,2013-04-04 21:20:00,
2013-04-04 17:25:00,55.0,16.9,30.08,NW,319,7.0,0.0,22,0.00,,,0.00,WeatherTracker,2013-04-04 21:25:00,
2013-04-04 17:30:00,54.8,16.7,30.08,WNW,295,8.0,0.0,22,0.00,,,0.00,WeatherTracker,2013-04-04 21:30:00,
2013-04-04 17:40:00,54.9,16.8,30.08,West,275,5.0,0.0,22,0.00,,,0.00,WeatherTracker,2013-04-04 21:40:00,
2013-04-04 17:45:00,54.8,16.7,30.09,WSW,258,5.0,0.0,22,0.00,,,0.00,WeatherTracker,2013-04-04 21:45:00,
2013-04-04 17:55:00,54.5,16.4,30.08,WNW,292,6.0,0.0,22,0.00,,,0.00,WeatherTracker,2013-04-04 21:55:00,
2013-04-04 18:00:00,54.5,16.4,30.08,NW,323,6.0,0.0,22,0.00,,,0.00,WeatherTracker,2013-04-04 22:00:00,
2013-04-04 18:10:00,54.4,16.4,30.08,NNW,329,14.0,0.0,22,0.00,,,0.00,WeatherTracker,2013-04-04 22:10:00,
2013-04-04 18:20:00,54.3,17.3,30.07,North,360,3.0,0.0,23,0.00,,,0.00,WeatherTracker,2013-04-04 22:20:00,
2013-04-04 18:25:00,54.1,17.1,30.07,West,279,4.0,0.0,23,0.00,,,0.00,WeatherTracker,2013-04-04 22:25:00,
2013-04-04 18:30:00,53.9,17.0,30.07,WSW,257,7.0,0.0,23,0.00,,,0.00,WeatherTracker,2013-04-04 22:30:00,
2013-04-04 18:40:00,53.4,17.5,30.07,West,274,1.0,0.0,24,0.00,,,0.00,WeatherTracker,2013-04-04 22:40:00,
2013-04-04 18:45:00,53.2,18.3,30.07,West,268,5.0,0.0,25,0.00,,,0.00,WeatherTracker,2013-04-04 22:45:00,
2013-04-04 18:55:00,52.6,19.6,30.06,WSW,258,7.0,0.0,27,0.00,,,0.00,WeatherTracker,2013-04-04 22:55:00,
2013-04-04 19:00:00,52.3,20.2,30.07,WNW,288,5.0,0.0,28,0.00,,,0.00,WeatherTracker,2013-04-04 23:00:00,
2013-04-04 19:05:00,52.1,20.0,30.07,WNW,287,6.0,0.0,28,0.00,,,0.00,WeatherTracker,2013-04-04 23:05:00,
2013-04-04 19:10:00,51.8,19.7,30.07,WNW,296,2.0,0.0,28,0.00,,,0.00,WeatherTracker,2013-04-04 23:10:00,
2013-04-04 19:15:00,51.5,20.3,30.07,NW,322,8.0,0.0,29,0.00,,,0.00,WeatherTracker,2013-04-04 23:15:00,
2013-04-04 19:25:00,51.0,20.7,30.08,West,278,2.0,0.0,30,0.00,,,0.00,WeatherTracker,2013-04-04 23:25:00,
2013-04-04 19:30:00,50.6,20.3,30.08,West,280,6.0,0.0,30,0.00,,,0.00,WeatherTracker,2013-04-04 23:30:00,
2013-04-04 19:35:00,50.3,20.8,30.08,NW,304,5.0,0.0,31,0.00,,,0.00,WeatherTracker,2013-04-04 23:35:00,
2013-04-04 19:45:00,49.8,20.4,30.08,West,260,4.0,0.0,31,0.00,,,0.00,WeatherTracker,2013-04-04 23:45:00,
2013-04-04 19:50:00,49.6,21.0,30.08,NW,325,6.0,0.0,32,0.00,,,0.00,WeatherTracker,2013-04-04 23:50:00,
2013-04-04 19:55:00,49.3,20.7,30.08,West,275,5.0,0.0,32,0.00,,,0.00,WeatherTracker,2013-04-04 23:55:00,
2013-04-04 20:05:00,48.6,20.8,30.08,NW,319,4.0,0.0,33,0.00,,,0.00,WeatherTracker,2013-04-05 00:05:00,
2013-04-04 20:10:00,48.4,21.3,30.09,West,277,6.0,0.0,34,0.00,,,0.00,WeatherTracker,2013-04-05 00:10:00,
2013-04-04 20:15:00,48.1,21.8,30.09,West,273,7.0,0.0,35,0.00,,,0.00,WeatherTracker,2013-04-05 00:15:00,
2013-04-04 20:20:00,47.8,22.2,30.09,WNW,303,5.0,0.0,36,0.00,,,0.00,WeatherTracker,2013-04-05 00:20:00,
2013-04-04 20:25:00,47.5,22.5,30.09,WNW,290,5.0,0.0,37,0.00,,,0.00,WeatherTracker,2013-04-05 00:25:00,
2013-04-04 20:35:00,46.8,23.2,30.10,WNW,291,6.0,0.0,39,0.00,,,0.00,WeatherTracker,2013-04-05 00:35:00,
2013-04-04 20:40:00,46.5,22.9,30.10,WNW,300,7.0,0.0,39,0.00,,,0.00,WeatherTracker,2013-04-05 00:40:00,
2013-04-04 20:45:00,46.3,23.3,30.10,NW,306,6.0,0.0,40,0.00,,,0.00,WeatherTracker,2013-04-05 00:45:00,
2013-04-04 20:50:00,46.0,23.6,30.10,NW,323,14.0,0.0,41,0.00,,,0.00,WeatherTracker,2013-04-05 00:50:00,
2013-04-04 21:00:00,45.6,23.8,30.10,WNW,292,3.0,0.0,42,0.00,,,0.00,WeatherTracker,2013-04-05 01:00:00,
2013-04-04 21:10:00,45.1,24.0,30.10,WNW,283,3.0,0.0,43,0.00,,,0.00,WeatherTracker,2013-04-05 01:10:00,
2013-04-04 21:15:00,44.9,24.3,30.10,West,263,6.0,0.0,44,0.00,,,0.00,WeatherTracker,2013-04-05 01:15:00,
2013-04-04 21:25:00,44.4,24.4,30.10,WNW,298,8.0,0.0,45,0.00,,,0.00,WeatherTracker,2013-04-05 01:25:00,
2013-04-04 21:30:00,44.2,24.7,30.10,NW,313,6.0,0.0,46,0.00,,,0.00,WeatherTracker,2013-04-05 01:30:00,
2013-04-04 21:35:00,44.0,24.6,30.10,West,267,3.0,0.0,46,0.00,,,0.00,WeatherTracker,2013-04-05 01:35:00,
2013-04-04 21:40:00,43.8,24.4,30.10,West,272,5.0,0.0,46,0.00,,,0.00,WeatherTracker,2013-04-05 01:40:00,
2013-04-04 21:45:00,43.7,24.3,30.10,WNW,293,2.0,0.0,46,0.00,,,0.00,WeatherTracker,2013-04-05 01:45:00,
2013-04-04 21:50:00,43.6,24.2,30.09,West,277,2.0,0.0,46,0.00,,,0.00,WeatherTracker,2013-04-05 01:50:00,
2013-04-04 22:00:00,43.4,24.0,30.08,SW,236,5.0,0.0,46,0.00,,,0.00,WeatherTracker,2013-04-05 02:00:00,
2013-04-04 22:05:00,43.2,24.3,30.08,NW,305,4.0,0.0,47,0.00,,,0.00,WeatherTracker,2013-04-05 02:05:00,
2013-04-04 22:15:00,43.0,24.7,30.08,WNW,301,4.0,0.0,48,0.00,,,0.00,WeatherTracker,2013-04-05 02:15:00,
2013-04-04 22:20:00,42.9,25.1,30.08,NW,306,3.0,0.0,49,0.00,,,0.00,WeatherTracker,2013-04-05 02:20:00,
2013-04-04 22:30:00,42.6,25.3,30.07,WSW,249,6.0,0.0,50,0.00,,,0.00,WeatherTracker,2013-04-05 02:30:00,
2013-04-04 22:40:00,42.4,25.6,30.07,WSW,244,7.0,0.0,51,0.00,,,0.00,WeatherTracker,2013-04-05 02:40:00,
2013-04-04 22:45:00,42.3,25.9,30.06,West,269,9.0,0.0,52,0.00,,,0.00,WeatherTracker,2013-04-05 02:45:00,
2013-04-04 22:50:00,42.1,25.8,30.06,WNW,294,7.0,0.0,52,0.00,,,0.00,WeatherTracker,2013-04-05 02:50:00,
2013-04-04 23:00:00,41.8,25.9,30.06,WNW,284,3.0,0.0,53,0.00,,,0.00,WeatherTracker,2013-04-05 03:00:00,
2013-04-04 23:05:00,41.7,26.3,30.05,West,266,6.0,0.0,54,0.00,,,0.00,WeatherTracker,2013-04-05 03:05:00,
2013-04-04 23:15:00,41.4,26.9,30.05,WNW,297,5.0,0.0,56,0.00,,,0.00,WeatherTracker,2013-04-05 03:15:00,
2013-04-04 23:20:00,41.3,27.2,30.05,NW,311,5.0,0.0,57,0.00,,,0.00,WeatherTracker,2013-04-05 03:20:00,
2013-04-04 23:30:00,41.0,27.4,30.05,West,281,3.0,0.0,58,0.00,,,0.00,WeatherTracker,2013-04-05 03:30:00,
2013-04-04 23:40:00,40.8,27.6,30.05,West,259,9.0,0.0,59,0.00,,,0.00,WeatherTracker,2013-04-05 03:40:00,
2013-04-04 23:45:00,40.7,27.9,30.06,WSW,254,10.0,0.0,60,0.00,,,0.00,WeatherTracker,2013-04-05 03:45:00,
2013-04-04 23:50:00,40.6,27.8,30.06,NW,306,4.0,0.0,60,0.00,,,0.00,WeatherTracker,2013-04-05 03:50:00,